GW3406 Weather Reports


time (UTC)temp
C
wind
direction
speed
KPH
gust
KPH
rain 1hr
cm
rain 24hr
cm
rain mn
cm
humidity
%
barometer
mb
20260504033706 2 243 3.2 3.2 0.00 0.00 0.00 83 1005.4
20260504033203 2 195 0.0 1.6 0.00 0.00 0.00 84 1005.3
20260504032659 2 167 1.6 3.2 0.00 0.00 0.00 84 1005.4
20260504032156 2 153 1.6 1.6 0.00 0.00 0.00 84 1005.3
20260504031653 2 192 1.6 1.6 0.00 0.00 0.00 84 1005.2
20260504031150 2 241 1.6 3.2 0.00 0.00 0.00 83 1005.2
20260504030646 2 250 1.6 3.2 0.00 0.00 0.00 84 1005.3
20260504030143 2 218 0.0 3.2 0.00 0.00 0.00 84 1005.3
20260504025640 2 209 1.6 3.2 0.00 0.00 0.00 83 1005.3
20260504025137 2 161 1.6 1.6 0.00 0.00 0.00 83 1005.3
20260504024634 2 189 0.0 1.6 0.00 0.00 0.00 81 1005.5
20260504024131 2 218 1.6 3.2 0.00 0.00 0.00 82 1005.6
20260504023627 2 177 1.6 1.6 0.00 0.00 0.00 82 1005.4
20260504023124 2 236 1.6 1.6 0.00 0.00 0.00 83 1005.7
20260504022620 2 158 1.6 1.6 0.00 0.00 0.00 83 1005.5
20260504022116 2 233 1.6 1.6 0.00 0.00 0.00 82 1005.4
20260504021614 2 229 0.0 0.0 0.00 0.00 0.00 82 1005.5
20260504021110 2 182 1.6 3.2 0.00 0.00 0.00 81 1005.3
20260504020608 2 195 0.0 1.6 0.00 0.00 0.00 81 1005.2
20260504020104 3 163 0.0 1.6 0.00 0.00 0.00 81 1005.1
20260504015600 3 176 3.2 3.2 0.00 0.00 0.00 80 1005.0
20260504015056 3 227 1.6 3.2 0.00 0.00 0.00 79 1005.1
20260504014552 3 238 3.2 3.2 0.00 0.00 0.00 78 1005.0
20260504014049 3 237 3.2 4.8 0.00 0.00 0.00 78 1005.0
20260504013547 3 156 1.6 3.2 0.00 0.00 0.00 79 1005.1
20260504013043 3 184 0.0 1.6 0.00 0.00 0.00 79 1004.9
20260504012536 3 158 0.0 1.6 0.00 0.00 0.00 78 1004.8
20260504012033 3 174 1.6 3.2 0.00 0.00 0.00 78 1004.9
20260504011530 3 238 1.6 3.2 0.00 0.00 0.00 77 1004.7
20260504011026 3 174 1.6 1.6 0.00 0.00 0.00 78 1004.7
20260504010522 3 166 0.0 1.6 0.00 0.00 0.00 77 1004.8
20260504010018 4 156 1.6 1.6 0.00 0.00 0.00 76 1004.6
20260504005515 4 147 1.6 1.6 0.00 0.00 0.00 76 1004.6
20260504005012 5 154 1.6 3.2 0.00 0.00 0.00 74 1004.6
20260504004510 5 205 1.6 3.2 0.00 0.00 0.00 72 1004.4
20260504004007 5 193 0.0 1.6 0.00 0.00 0.00 70 1004.6
20260504003503 6 196 0.0 1.6 0.00 0.00 0.00 68 1004.4
20260504003000 6 200 0.0 1.6 0.00 0.00 0.00 66 1004.4
20260504002457 6 184 0.0 0.0 0.00 0.00 0.00 63 1004.4
20260504001954 7 208 0.0 0.0 0.00 0.00 0.00 62 1004.4
20260504001451 7 213 0.0 0.0 0.00 0.00 0.00 61 1004.3
20260504000948 7 234 1.6 1.6 0.00 0.00 0.00 61 1004.3
20260504000445 8 233 0.0 1.6 0.00 0.00 0.00 57 1004.2
20260503235942 8 242 1.6 1.6 0.00 0.00 0.00 56 1004.0
20260503235440 8 241 1.6 1.6 0.00 0.00 0.00 60 1004.2
20260503234937 8 206 0.0 3.2 0.00 0.00 0.00 57 1004.4
20260503234435 9 241 1.6 1.6 0.00 0.00 0.00 55 1004.3
20260503233933 10 248 1.6 1.6 0.00 0.00 0.00 56 1004.4
20260503233429 10 233 0.0 1.6 0.00 0.00 0.00 51 1004.2
20260503232925 11 322 1.6 3.2 0.00 0.00 0.00 45 1004.3
20260503232422 10 249 0.0 1.6 0.00 0.00 0.00 47 1004.2
20260503231920 11 227 0.0 1.6 0.00 0.00 0.00 43 1004.3
20260503231417 11 133 3.2 3.2 0.00 0.00 0.00 36 1004.3
20260503230914 12 257 1.6 4.8 0.00 0.00 0.00 39 1004.2
20260503230410 12 249 4.8 9.7 0.00 0.00 0.00 41 1004.2
20260503225908 12 345 1.6 1.6 0.00 0.00 0.00 38 1004.2
20260503225404 13 231 1.6 6.4 0.00 0.00 0.00 33 1004.1
20260503224900 13 211 6.4 6.4 0.00 0.00 0.00 32 1004.2
20260503224357 13 261 4.8 6.4 0.00 0.00 0.00 33 1004.2
20260503223855 13 123 3.2 4.8 0.00 0.00 0.00 33 1004.3
20260503223353 13 133 1.6 4.8 0.00 0.00 0.00 33 1004.2
20260503222848 13 263 1.6 6.4 0.00 0.00 0.00 33 1004.0
20260503222347 14 172 6.4 14.5 0.00 0.00 0.00 31 1004.3
20260503221844 14 257 0.0 4.8 0.00 0.00 0.00 30 1004.1
20260503221343 14 296 3.2 14.5 0.00 0.00 0.00 32 1004.3
20260503220838 14 150 3.2 11.3 0.00 0.00 0.00 32 1004.3
20260503220336 14 256 3.2 9.7 0.00 0.00 0.00 31 1004.4
20260503215832 14 238 8.0 11.3 0.00 0.00 0.00 30 1004.4
20260503215330 14 169 3.2 9.7 0.00 0.00 0.00 29 1004.6
20260503214827 14 260 3.2 12.9 0.00 0.00 0.00 29 1004.6
20260503214324 14 135 9.7 14.5 0.00 0.00 0.00 32 1004.3
20260503213822 15 246 3.2 6.4 0.00 0.00 0.00 29 1004.6
20260503213319 14 149 9.7 14.5 0.00 0.00 0.00 30 1004.6
20260503212816 15 43 4.8 9.7 0.00 0.00 0.00 29 1004.6
20260503212314 14 132 8.0 11.3 0.00 0.00 0.00 31 1004.7
20260503211811 14 276 6.4 11.3 0.00 0.00 0.00 31 1004.6
20260503211308 14 243 6.4 14.5 0.00 0.00 0.00 31 1004.4
20260503210807 14 221 8.0 14.5 0.00 0.00 0.00 30 1004.4
20260503210306 14 284 3.2 4.8 0.00 0.00 0.00 29 1004.6
20260503205800 15 246 9.7 11.3 0.00 0.00 0.00 31 1004.7
20260503205257 14 71 8.0 11.3 0.00 0.00 0.00 34 1004.8
20260503204753 14 299 8.0 12.9 0.00 0.00 0.00 30 1004.8
20260503204251 15 246 1.6 6.4 0.00 0.00 0.00 31 1004.8
20260503203749 14 143 4.8 16.1 0.00 0.00 0.00 32 1004.9
20260503203246 14 140 6.4 12.9 0.00 0.00 0.00 34 1004.9
20260503202743 13 172 4.8 14.5 0.00 0.00 0.00 32 1004.8
20260503202241 14 305 8.0 16.1 0.00 0.00 0.00 32 1005.0
20260503201738 13 280 1.6 9.7 0.00 0.00 0.00 34 1005.1
20260503201235 13 213 6.4 22.5 0.00 0.00 0.00 35 1004.9
20260503200732 13 237 12.9 20.9 0.00 0.00 0.00 34 1005.2
20260503200228 13 281 6.4 9.7 0.00 0.00 0.00 31 1005.2
20260503195725 13 241 4.8 17.7 0.00 0.00 0.00 33 1005.5
20260503195222 13 270 4.8 17.7 0.00 0.00 0.00 30 1005.5
20260503194720 13 227 6.4 11.3 0.00 0.00 0.00 33 1005.5
20260503194215 13 253 8.0 14.5 0.00 0.00 0.00 33 1005.6
20260503193711 13 145 6.4 11.3 0.00 0.00 0.00 36 1005.8
20260503193208 13 253 6.4 14.5 0.00 0.00 0.00 37 1005.9
20260503192703 13 236 4.8 12.9 0.00 0.00 0.00 39 1006.0
20260503192159 13 181 12.9 16.1 0.00 0.00 0.00 33 1006.0
20260503191655 13 157 6.4 16.1 0.00 0.00 0.00 35 1005.8
20260503191153 13 164 12.9 16.1 0.00 0.00 0.00 36 1006.1
20260503190650 12 139 3.2 12.9 0.00 0.00 0.00 37 1006.3
20260503190146 13 197 14.5 17.7 0.00 0.00 0.00 33 1006.3
20260503185643 13 180 9.7 14.5 0.00 0.00 0.00 37 1006.3
20260503185138 12 143 8.0 17.7 0.00 0.00 0.00 37 1006.1
20260503184634 12 106 3.2 6.4 0.00 0.00 0.00 37 1006.5
20260503184130 12 250 6.4 12.9 0.00 0.00 0.00 37 1006.4
20260503183627 12 118 4.8 11.3 0.00 0.00 0.00 39 1006.5
20260503183124 12 199 3.2 9.7 0.00 0.00 0.00 41 1006.6
20260503182622 12 151 17.7 27.4 0.00 0.00 0.00 39 1006.6
20260503182121 12 259 3.2 4.8 0.00 0.00 0.00 41 1006.5
20260503181617 12 184 3.2 14.5 0.00 0.00 0.00 38 1006.7
20260503181114 12 318 12.9 22.5 0.00 0.00 0.00 35 1006.7
20260503180611 11 224 3.2 14.5 0.00 0.00 0.00 38 1006.8
20260503180109 11 296 6.4 16.1 0.00 0.00 0.00 38 1006.7
20260503175605 11 276 3.2 6.4 0.00 0.00 0.00 39 1006.7
20260503175103 12 86 11.3 16.1 0.00 0.00 0.00 40 1006.8
20260503174559 11 237 6.4 11.3 0.00 0.00 0.00 38 1006.9
20260503174056 11 160 3.2 6.4 0.00 0.00 0.00 41 1006.9
20260503173551 11 237 6.4 11.3 0.00 0.00 0.00 36 1006.7
20260503173047 11 122 3.2 11.3 0.00 0.00 0.00 39 1006.9
20260503172545 11 147 9.7 12.9 0.00 0.00 0.00 39 1007.1
20260503172042 10 346 1.6 6.4 0.00 0.00 0.00 36 1007.3
20260503171538 11 134 17.7 20.9 0.00 0.00 0.00 37 1007.2
20260503171036 11 237 3.2 9.7 0.00 0.00 0.00 38 1007.3
20260503170532 10 89 4.8 9.7 0.00 0.00 0.00 43 1007.3
20260503150913 8 163 8.0 24.1 0.00 0.00 0.00 46 1008.1
20260503150409 8 222 4.8 12.9 0.00 0.00 0.00 50 1008.1
20260503131302 4 140 0.0 11.3 0.00 0.00 0.00 65 1008.0
20260503130800 5 128 3.2 9.7 0.00 0.00 0.00 64 1008.0
20260503130257 4 173 14.5 16.1 0.00 0.00 0.00 65 1007.8
20260503110651 -1 150 0.0 0.0 0.00 0.00 0.00 93 1006.7
20260503110148 -1 173 0.0 0.0 0.00 0.00 0.00 93 1006.6
20260503100115 -1 109 0.0 0.0 0.00 0.00 0.00 94 1006.0
20260503081458 0 217 0.0 1.6 0.00 0.00 0.00 87 1004.7
20260503080955 0 154 0.0 0.0 0.00 0.00 0.00 86 1004.8
20260503080451 0 128 0.0 0.0 0.00 0.00 0.00 86 1004.6
20260503072927 2 276 1.6 3.2 0.00 0.00 0.00 77 1004.6
20260503072425 2 170 3.2 3.2 0.00 0.00 0.00 78 1004.4
20260503071922 1 198 0.0 1.6 0.00 0.00 0.00 80 1004.3
20260503071419 1 189 0.0 0.0 0.00 0.00 0.00 85 1004.4
20260503070915 1 131 1.6 1.6 0.00 0.00 0.00 88 1004.4
20260503070412 1 150 0.0 0.0 0.00 0.00 0.00 89 1004.4
20260503060338 0 256 0.0 0.0 0.00 0.00 0.00 90 1004.3
20260503054826 0 210 0.0 0.0 0.00 0.00 0.00 90 1004.4
20260503054322 0 217 1.6 1.6 0.00 0.00 0.00 90 1004.4
20260503053820 0 243 3.2 3.2 0.00 0.00 0.00 90 1004.4
20260503053318 0 301 3.2 3.2 0.00 0.00 0.00 90 1004.4
20260503052814 0 159 0.0 1.6 0.00 0.00 0.00 90 1004.6
20260503052311 0 262 1.6 1.6 0.00 0.00 0.00 89 1004.4
20260503051807 1 185 0.0 1.6 0.00 0.00 0.00 90 1004.2
20260503051304 1 85 0.0 1.6 0.00 0.00 0.00 89 1004.3
20260503050800 1 161 1.6 3.2 0.00 0.00 0.00 89 1004.2
20260503050257 1 185 0.0 1.6 0.00 0.00 0.00 89 1004.2
20260503045754 1 159 0.0 0.0 0.00 0.00 0.00 90 1004.1
20260503045252 1 6 0.0 0.0 0.00 0.00 0.00 90 1004.0
20260503044748 1 148 0.0 0.0 0.00 0.00 0.00 90 1004.0
20260503044245 1 214 0.0 0.0 0.00 0.00 0.00 89 1004.0
20260503043742 1 257 1.6 1.6 0.00 0.00 0.00 89 1004.1
20260503043239 1 255 0.0 0.0 0.00 0.00 0.00 90 1004.1
20260503042735 0 168 1.6 1.6 0.00 0.00 0.00 89 1003.9
20260503042232 0 171 0.0 0.0 0.00 0.00 0.00 90 1003.9
20260503041728 0 188 0.0 3.2 0.00 0.00 0.00 90 1004.1
20260503041226 0 270 0.0 1.6 0.00 0.00 0.00 89 1003.9
20260503040723 0 165 1.6 1.6 0.00 0.00 0.00 89 1003.9
20260503040221 0 246 0.0 1.6 0.00 0.00 0.00 89 1003.9
20260503035718 0 260 0.0 1.6 0.00 0.00 0.00 88 1003.7
20260503035215 0 223 0.0 0.0 0.00 0.00 0.00 88 1003.8
20260503034712 0 195 0.0 0.0 0.00 0.00 0.00 88 1003.8
20260503034209 1 198 0.0 0.0 0.00 0.00 0.00 87 1004.0